www.pogodaiklimat.ru

Погода и климат >> Архив погоды >> Германия >> Шлезвиг


ПОГОДА в Шлезвиге

  • Прогноз погоды в Шлезвиге
  • Монитор погоды в Шлезвиге

АРХИВ ПОГОДЫ в Шлезвиге

Время (UTC), дата Ветер
(напр.,м/с)
 
Видим.   Явления Облачность Т
(С)
Тd
(С)
f
(%)
Тe
(С)
Тes
(С)
Комфортность P
(гПа)
Po
(гПа)
Тmin
(С)
Tmax
(С)
R
(мм)
R24
(мм)
S
(см)
04 8.09 СЗ 1 12 км 3/0
[Ci fib]
+8.1 +7.9 99 +7 +7 1018.2 1012.3
05 8.09 С 2 12 км 3/0
[Ci fib]
+8.6 +8.6 100 +7 +7 1018.4 1012.5
06 8.09 СВ 1 15 км 3/1 300 м
[Cu hum Ci fib]
+9.8 +9.6 99 +9 +10 1018.7 1012.8 +7.8 +13.9
07 8.09 С 1 15 км 3/1 480 м
[Cu hum Ci fib]
+12.5 +10.7 89 +12 +14 1018.5 1012.7
08 8.09 СВ 1 25 км 3/1 480 м
[Cu med, cong Ci fib]
+15.0 +11.4 79 +16 +20 1018.6 1012.8
09 8.09 В 2 30 км 3/3 300 м
[Cu med, cong Ci fib]
+16.1 +10.9 71 +16 +21 1018.6 1012.9
10 8.09 В 2 30 км 3/3 480 м
[Cu med, cong Ci fib]
+16.7 +9.4 62 +17 +23 1018.6 1012.9
11 8.09 ЮВ 2 30 км 3/3 700 м
[Cu med, cong Ci fib]
+18.5 +9.9 57 +19 +26 1018.6 1012.9
12 8.09 ЮВ 2 30 км 3/3 900 м
[Cu med, cong Ci fib]
+18.9 +10.6 59 +20 +26 1018.8 1013.1
13 8.09 ЮЗ 2 30 км 4/4 1000 м
[Cu med, cong Ci fib]
+18.6 +10.3 58 +20 +24 1018.3 1012.6
14 8.09 СВ 3 30 км 4/4 1080 м
[Cu Sc Ci fib]
+17.8 +10.5 62 +18 +21 1017.9 1012.2
15 8.09 В 2 30 км 4/4 1000 м
[Cu Sc Ci fib]
+17.9 +10.0 60 +18 +21 1018.0 1012.3
16 8.09 В 4 55 км 10/10 930 м
[]
+17.0 +10.4 65 +17 +17 1018.2 1012.5
17 8.09 В 2 60 км 9/0
[]
+15.9 +10.7 71 +16 +16 1018.2 1012.5
18 8.09 В 1 50 км 10/0
[]
+13.8 +11.6 87 +14 +14 1018.5 1012.7 +9.7 +19.4
19 8.09 СВ 2 45 км 10/0
[]
+13.1 +11.5 90 +12 +12 1018.4 1012.6
20 8.09 В 1 28 км 10/0
[]
+11.8 +10.9 94 +12 +12 1018.5 1012.7
21 8.09 С 2 28 км 10/0
[]
+11.2 +10.6 96 +10 +10 1018.2 1012.4
22 8.09 СВ 1 14 км 10/0
[]
+11.0 +10.4 96 +11 +11 1018.1 1012.3
23 8.09 СВ 2 18 км 10/0
[]
+11.3 +10.9 97 +10 +10 1017.6 1011.8
00 9.09 СВ 1 8000 м 10/0
[]
+10.9 +10.5 97 +10 +10 1017.5 1011.7
01 9.09 СВ 1 5000 м дымка 10/0
[]
+10.4 +10.0 97 +10 +10 1017.1 1011.3
02 9.09 С 1 2800 м дымка 10/0
[]
+10.3 +10.0 98 +10 +10 1016.4 1010.6
03 9.09 С 1 3300 м дымка 10/0
[]
+10.1 +9.8 98 +9 +9 1015.9 1010.1
04 9.09 СВ 1 5000 м дымка 9/0
[Ac trans Ci sp]
+9.7 +9.6 99 +9 +9 1015.9 1010.1
05 9.09 С 1 800 м туман 9/0
[Ac As Ci sp]
+9.7 +9.5 99 +9 +9 1015.7 1009.9
06 9.09 СВ 1 3000 м в посл. час туман 9/1 300 м
[Cu med, cong Ac As Ci sp]
+10.6 +10.4 99 +10 +10 1015.8 1010.0 +9.6 +13.8
07 9.09 С 1 5000 м дымка 9/0
[Ac As Ci sp]
+12.3 +12.0 98 +12 +13 1015.3 1009.5
08 9.09 С 1 10 км 9/1 480 м
[Cu med, cong Ac As Ci sp]
+14.2 +12.6 90 +14 +17 1014.9 1009.2
09 9.09 С 1 30 км {туман} 9/1 300 м
[Cu med, cong Ac trans Ci sp]
+15.7 +11.8 78 +16 +20 1014.5 1008.8
10 9.09 СЗ 1 30 км 8/3 600 м
[Cu med, cong Ac trans Ci sp]
+17.8 +11.9 68 +19 +23 1014.0 1008.3
11 9.09 С 1 30 км 9/3 750 м
[Cu med, cong Ac trans Ci sp]
+18.2 +11.5 65 +20 +24 1013.5 1007.8
12 9.09 С 1 30 км 9/4 750 м
[Cu Sc Ac trans Ci sp]
+18.0 +10.7 62 +19 +23 1013.4 1007.7
13 9.09 С 2 30 км 9/6 800 м
[Cu Sc Ac trans]
+17.2 +12.2 72 +18 +19 1013.1 1007.4
14 9.09 С 2 30 км 9/9 800 м
[Cu Sc]
+17.0 +11.9 72 +17 +18 1012.6 1006.9
15 9.09 В 3 30 км 9/9 750 м
[Cu Sc]
+15.5 +12.1 80 +15 +15 1012.4 1006.7
16 9.09 СВ 2 40 км в посл. час дождь {морось} 10/0 2000 м
[]
+15.4 +12.3 82 +15 +16 1012.8 1007.1
17 9.09 СЗ 2 9000 м слаб. дождь {морось} 10/10 420 м
[]
+13.4 +12.3 93 +13 +13 1012.9 1007.1
18 9.09 С 1 12 км слаб. дождь {морось} 9/0 2000 м
[]
+13.1 +12.6 97 +13 +13 1012.9 1007.1 +10.8 +19.0 3
19 9.09 С 2 8000 м слаб. морось {дождь} 9/0 2000 м
[]
+12.8 +12.3 97 +12 +12 1012.9 1007.1
20 9.09 СЗ 2 3300 м дождь {морось} 9/0 2000 м
[]
+12.7 +12.5 99 +12 +12 1013.0 1007.2
21 9.09 З 2 2600 м слаб. дождь {морось} 9/0 2000 м
[]
+12.8 +12.5 98 +12 +12 1012.8 1007.0 2
22 9.09 З 2 4000 м слаб. дождь {морось} 10/10 800 м
[]
+12.7 +12.5 99 +12 +12 1012.5 1006.7
23 9.09 З 2 2000 м слаб. дождь 10/0 2000 м
[]
+12.6 +12.4 99 +12 +12 1012.4 1006.6
00 10.09 СЗ 3 4400 м слаб. дождь {морось} 9/0
[]
+12.4 +12.1 98 +11 +11 1012.2 1006.4 6
01 10.09 СЗ 3 12 км в посл. час дождь {морось} 10/10 420 м
[]
+11.9 +11.5 97 +10 +10 1012.0 1006.2
02 10.09 З 3 6000 м слаб. дождь {морось} 9/9 480 м
[]
+11.7 +11.4 98 +10 +10 1011.9 1006.1
03 10.09 З 3 6000 м в посл. час дождь {морось} 10/0
[]
+11.4 +11.0 97 +9 +9 1011.6 1005.8 0.5
04 10.09 З 3 10 км 10/6 480 м
[Sc As op]
+11.4 +10.9 97 +9 +9 1011.6 1005.8
05 10.09 З 3 6000 м дымка 10/9 500 м
[Sc]
+11.6 +11.2 97 +10 +10 1011.6 1005.8
06 10.09 З 3 10 км {дождь, морось} 9/9 600 м
[Cu Sc]
+12.2 +11.8 97 +10 +10 1011.7 1005.9 +11.4 +13.1 7
07 10.09 З 3 12 км 9/9 630 м
[Cu Sc]
+13.7 +13.0 96 +12 +13 1011.8 1006.1
08 10.09 З 4 25 км 9/9 630 м
[Cu Sc]
+15.1 +13.7 91 +14 +14 1012.1 1006.4
09 10.09 З 5 30 км в посл. час ливневой дождь 9/9 300 м
[Cu Sc]
+14.9 +13.5 91 +13 +14 1012.1 1006.4 0.4
10 10.09 З 6 35 км в посл. час ливневой дождь 9/6 630 м
[Cu Sc Ac trans]
+17.1 +13.2 78 +16 +17 1012.1 1006.4
11 10.09 СЗ 6 9000 м слаб. ливневой дождь 9/9 600 м
[Cb cap]
+14.6 +12.6 88 +13 +13 1012.7 1007.0
12 10.09 З 5 55 км в посл. час дождь {ливн. осадки} 10/10 1500 м
[]
+16.3 +13.8 85 +15 +15 1012.9 1007.2 0.6
13 10.09 З 7 35 км слаб. морось {дождь} 10/10 540 м
[]
+15.8 +13.3 85 +14 +14 1013.3 1007.6
14 10.09 З 6 65 км в посл. час дождь {морось} 10/10 500 м
[]
+16.1 +12.9 81 +15 +15 1013.8 1008.1
15 10.09 З 5 8000 м слаб. морось с дождем 10/10 300 м
[]
+14.8 +13.7 93 +13 +13 1014.2 1008.5 0.1
16 10.09 З 4 45 км в посл. час дождь {морось} 10/10 1470 м
[]
+14.8 +13.6 93 +14 +14 1014.6 1008.9
17 10.09 З 5 20 км в посл. час дождь {морось} 10/10 480 м
[]
+14.8 +13.3 91 +13 +13 1015.0 1009.3
18 10.09 З 4 35 км {дождь, морось} 10/10 300 м
[]
+14.7 +12.9 89 +13 +13 1015.3 1009.6 +12.2 +17.7 1
19 10.09 З 3 30 км 3/0
[]
+13.3 +12.0 92 +12 +12 1015.9 1010.1
20 10.09 З 3 35 км 4/4 1500 м
[]
+12.9 +11.8 93 +11 +11 1016.4 1010.6
21 10.09 З 3 30 км ясно +12.5 +11.6 94 +11 +11 1016.8 1011.0
22 10.09 З 3 35 км 1/1 800 м
[]
+11.9 +11.1 95 +10 +10 1017.3 1011.5
23 10.09 ЮЗ 2-3
{5}
35 км ясно +11.4 +10.8 96 +10 +10 1017.3 1011.5
00 11.09 ЮЗ 2 26 км ясно +10.6 +10.1 97 +9 +9 1017.6 1011.8
01 11.09 ЮЗ 2 28 км 4/4 750 м
[]
+10.9 +10.3 96 +9 +9 1017.8 1012.0
02 11.09 ЮЗ 3 26 км 1/1 660 м
[]
+10.8 +10.3 97 +9 +9 1017.9 1012.1
03 11.09 ЮЗ 3 30 км ясно +11.1 +10.2 94 +9 +9 1017.6 1011.8 0.0
04 11.09 ЮЗ 3 30 км 3/3 800 м
[Sc]
+10.4 +9.7 95 +8 +8 1017.6 1011.8
05 11.09 Ю 4 12 км 1/1 840 м
[Sc]
+10.7 +10.2 97 +8 +8 1017.5 1011.7
06 11.09 Ю 4 10 км ясно +11.0 +10.0 94 +8 +9 1017.6 1011.8 +10.4 +14.7
07 11.09 Ю 4 15 км 3/0
[Ci sp]
+12.4 +10.6 89 +10 +11 1017.5 1011.7
08 11.09 Ю 5 15 км 4/1 600 м
[Cu hum Ac trans Ci sp]
+14.4 +11.9 85 +13 +14 1017.4 1011.6
09 11.09 ЮЗ 5 20 км 5/1 300 м
[Cu hum Ci fib]
+16.2 +12.3 78 +15 +18 1017.1 1011.4
10 11.09 ЮЗ 6 30 км 9/3 630 м
[Cu med, cong Ci sp]
+17.4 +12.0 71 +17 +18 1017.1 1011.4
11 11.09 ЮЗ 7 30 км 9/1 750 м
[Cu hum Ci sp]
+17.6 +12.2 71 +17 +18 1016.8 1011.1
12 11.09 ЮЗ 7 28 км 10/10 870 м
[]
+17.4 +11.6 69 +16 +16 1016.7 1011.0
13 11.09 ЮЗ 6 13 км слаб. дождь {осадки} 10/10 840 м
[]
+15.8 +12.2 79 +14 +14 1016.6 1010.9
14 11.09 ЮЗ 6 18 км слаб. морось {дождь} 10/10 480 м
[]
+15.6 +12.8 83 +14 +14 1016.5 1010.8
15 11.09 ЮЗ 7 10 км слаб. морось с дождем 10/10 500 м
[]
+14.2 +12.4 89 +12 +12 1016.4 1010.6 0.4
16 11.09 ЮЗ 6 2500 м дождь 9/9 210 м
[]
+12.9 +12.4 97 +10 +10 1016.4 1010.6
17 11.09 ЮЗ 7 3100 м морось {дождь} 10/10 180 м
[]
+12.9 +12.4 97 +10 +10 1016.2 1010.4
18 11.09 ЮЗ 6 7000 м слаб. морось {дождь} 10/10 100 м
[]
+13.2 +12.9 98 +11 +11 1016.0 1010.2 +11.0 +18.2 6
19 11.09 ЮЗ 6 3500 м слаб. морось с дождем 10/10 120 м
[]
+13.7 +13.4 98 +11 +11 1016.2 1010.4
20 11.09 ЮЗ 5 6000 м слаб. морось {дождь} 10/10 120 м
[]
+14.1 +13.9 99 +12 +12 1016.9 1011.1
21 11.09 ЮЗ 3 7000 м в посл. час дождь {морось} 10/10 120 м
[]
+14.6 +14.5 99 +14 +14 1017.3 1011.6 3
22 11.09 З 3 9000 м в посл. час дождь {морось} 4/4 400 м
[]
+13.9 +13.7 99 +13 +13 1018.1 1012.3
23 11.09 ЮЗ 2 7000 м дымка 1/1 570 м
[]
+13.1 +12.9 99 +12 +12 1018.8 1013.0
00 12.09 ЮЗ 2 13 км {дождь, морось} 4/4 1000 м
[]
+12.4 +12.2 99 +11 +11 1019.4 1013.6 3
01 12.09 ЮЗ 3 21 км 9/9 750 м
[]
+12.5 +12.0 97 +11 +11 1019.8 1014.0
02 12.09 ЮЗ 2 19 км 8/0
[]
+12.0 +11.6 97 +11 +11 1020.3 1014.5
03 12.09 ЮЗ 2 20 км 9/9 1500 м
[]
+11.9 +11.6 98 +11 +11 1020.7 1014.9 0.0
04 12.09 ЮЗ 2 25 км в посл. час дождь 8/8 840 м
[Sc]
+12.7 +11.9 95 +12 +12 1021.0 1015.2
05 12.09 ЮЗ 3 25 км в посл. час дождь 6/5 1380 м
[Sc Ci fib]
+12.8 +11.7 93 +11 +11 1021.7 1015.9
06 12.09 ЮЗ 3 25 км {дождь} 8/4 600 м
[Sc Ac trans Ci fib]
+12.9 +11.7 92 +11 +12 1022.2 1016.4 +11.3 +14.7 3
07 12.09 ЮЗ 4 25 км 9/9 1500 м
[Sc]
+14.1 +13.3 95 +13 +13 1022.6 1016.8
08 12.09 ЮЗ 3 25 км 9/9 210 м
[Sc]
+16.0 +14.7 92 +15 +16 1023.1 1017.3
09 12.09 ЮЗ 3 25 км 8/8 200 м
[Cu Sc]
+17.3 +14.6 84 +17 +18 1023.5 1017.8
10 12.09 ЮЗ 4 12 км слаб. ливневой дождь 9/9 400 м
[Cu Sc]
+16.8 +14.5 86 +16 +17 1023.9 1018.2
11 12.09 ЮЗ 4 25 км в посл. час ливневой дождь 9/9 400 м
[Cu Sc]
+18.3 +15.0 81 +19 +19 1024.1 1018.4
12 12.09 З 5 24 км в посл. час морось {ливн. осадки} 5/5 1500 м
[]
+19.5 +13.5 68 +21 +23 комфорт 1024.3 1018.6 0.0
13 12.09 З 6 35 км 10/0
[]
+18.5 +12.7 69 +19 +20 1024.5 1018.8
14 12.09 З 6 55 км 3/3 1500 м
[]
+19.2 +11.5 61 +20 +21 1024.5 1018.8
15 12.09 З 6 40 км 8/8 800 м
[]
+18.0 +12.5 70 +17 +18 1024.5 1018.8
16 12.09 З 5 30 км 6/6 800 м
[]
+17.5 +12.6 73 +17 +17 1024.5 1018.8
17 12.09 З 3 30 км 9/9 800 м
[]
+16.6 +12.5 77 +16 +16 1024.5 1018.7
18 12.09 ЮЗ 3 30 км 9/9 1000 м
[]
+15.8 +12.3 80 +15 +15 1024.5 1018.7 +12.9 +19.7 0.0 220
19 12.09 ЮЗ 3 27 км 9/9 1000 м
[]
+15.3 +13.0 86 +15 +15 1024.4 1018.6
20 12.09 ЮЗ 3 30 км 10/10 660 м
[]
+15.6 +13.0 85 +15 +15 1024.3 1018.5
21 12.09 ЮЗ 3 29 км 10/10 1440 м
[]
+15.7 +13.5 87 +15 +15 1024.0 1018.2
22 12.09 ЮЗ 3 28 км 10/10 840 м
[]
+16.1 +13.0 82 +16 +16 1023.5 1017.7
23 12.09 ЮЗ 4 30 км в посл. час дождь {морось} 10/10 1110 м
[]
+16.2 +13.6 85 +15 +15 1022.7 1017.0
00 13.09 ЮЗ 5 16 км слаб. морось {дождь} 9/9 300 м
[]
+15.7 +14.7 94 +14 +14 1022.4 1016.6 0.1
01 13.09 ЮЗ 4 3900 м дождь {морось} 10/10 330 м
[]
+16.0 +15.3 96 +15 +15 1021.6 1015.9
02 13.09 ЮЗ 5 9000 м в посл. час дождь {морось} 9/9 210 м
[]
+16.6 +16.2 97 +16 +16 1021.3 1015.6
03 13.09 З 5 13 км слаб. морось {дождь} 10/10 210 м
[]
+17.1 +16.6 97 +16 +16 1021.4 1015.7 1
04 13.09 З 4 10 км слаб. дождь {морось} 10/9 240 м
[Frnb]
+16.4 +15.9 97 +16 +16 1021.8 1016.1
05 13.09 СЗ 6 20 км в посл. час дождь 10/9 270 м
[Sc]
+14.8 +13.9 94 +13 +13 1023.6 1017.8
06 13.09 СЗ 4 40 км {дождь, морось} 9/9 600 м
[Sc]
+14.0 +13.2 95 +12 +12 1025.0 1019.2 +14.0 +17.2 3
07 13.09 СЗ 5-8
{8}
40 км 3/3 400 м
[Cu Sc]
+15.0 +13.1 88 +14 +14 1026.0 1020.2
08 13.09 СЗ 6 40 км 3/3 540 м
[Cu med, cong]
+15.6 +11.5 77 +14 +15 1027.2 1021.4
09 13.09 СЗ 6 40 км 4/4 600 м
[Cu med, cong]
+16.5 +10.5 68 +15 +17 1028.6 1022.8
10 13.09 СЗ 6 40 км 4/4 900 м
[Cu med, cong Ci fib]
+17.6 +9.3 58 +17 +19 1029.2 1023.4
11 13.09 СЗ 7 40 км в посл. час ливневой дождь 4/4 900 м
[Cu med, cong Ci fib]
+16.8 +9.5 62 +16 +17 1029.7 1023.9
12 13.09 СЗ 6 35 км {ливн. осадки} 6/0
[]
+17.3 +8.3 55 +17 +19 1030.4 1024.6 0.0
13 13.09 З 7 55 км 8/0
[]
+18.3 +8.3 52 +18 +19 1030.9 1025.1
14 13.09 СЗ 6 35 км 6/6 1230 м
[]
+17.9 +9.5 58 +17 +18 1031.4 1025.6
15 13.09 З 6 35 км 10/0
[]
+17.1 +8.9 58 +16 +17 1031.6 1025.8
16 13.09 З 5 45 км 10/0
[]
+15.8 +7.1 56 +15 +15 1031.7 1025.9
17 13.09 СЗ 4 40 км 10/0
[]
+14.8 +8.8 67 +14 +14 1032.0 1026.2
18 13.09 З 3 40 км 5/5 1000 м
[]
+13.2 +9.3 77 +12 +12 1032.7 1026.8 +13.2 +18.7 0.0
19 13.09 З 2 40 км 8/0
[]
+11.4 +9.3 87 +10 +10 1033.2 1027.3
20 13.09 З 2-3
{4}
30 км ясно +10.3 +8.8 90 +9 +9 1033.4 1027.5
21 13.09 З 3 30 км ясно +9.7 +8.6 93 +7 +7 1033.9 1027.9
22 13.09 З 3-4
{4}
30 км ясно +9.1 +8.1 93 +7 +7 1034.2 1028.2
23 13.09 З 3 35 км 9/9 1020 м
[]
+9.2 +7.9 92 +7 +7 1034.3 1028.3
00 14.09 З 3 35 км 3/0
[]
+8.8 +7.6 92 +6 +6 1034.3 1028.3
01 14.09 З 2-3
{3}
35 км ясно +8.4 +7.5 94 +6 +6 1034.3 1028.3
02 14.09 З 3 35 км 5/0
[]
+8.2 +7.3 94 +5 +5 1034.3 1028.3
03 14.09 З 2 30 км 9/0
[]
+8.0 +7.1 94 +6 +6 1034.1 1028.1
04 14.09 З 2 30 км 4/0
[Ci sp]
+7.4 +6.8 96 +5 +5 1033.9 1027.9
05 14.09 З 2 30 км 5/0
[Ci sp]
+7.8 +7.1 95 +6 +6 1033.9 1027.9
06 14.09 ЮЗ 2 30 км 5/1 600 м
[Sc Ci sp]
+8.1 +7.6 97 +6 +6 1034.1 1028.1 +7.3 +13.2
07 14.09 ЮЗ 1 40 км 6/1 900 м
[Sc Ci sp]
+10.8 +8.4 85 +10 +12 1034.3 1028.4
08 14.09 Ю 2 40 км 8/1 900 м
[Sc Ci sp]
+14.0 +9.5 74 +14 +16 1034.3 1028.4
09 14.09 ЮЗ 2 40 км 8/1 600 м
[Cu med, cong Ci sp]
+15.9 +8.9 63 +16 +20 1034.0 1028.2
10 14.09 ЮЗ 4 40 км 8/4 1000 м
[Cu med, cong Ci sp]
+15.7 +8.6 63 +15 +17 1033.7 1027.9
11 14.09 ЮЗ 4 40 км 6/3 1000 м
[Cu med, cong Ci sp]
+17.3 +8.2 55 +17 +20 1033.4 1027.6
12 14.09 З 4 50 км 5/5 1260 м
[]
+18.1 +7.9 51 +18 +21 1032.8 1027.0
13 14.09 З 3 40 км 9/9 1170 м
[]
+17.6 +8.6 56 +18 +18 1032.2 1026.4
14 14.09 З 4 55 км 8/8 1080 м
[]
+17.4 +9.0 58 +17 +18 1031.3 1025.5
15 14.09 З 4 50 км 8/8 1080 м
[]
+17.0 +9.6 62 +17 +17 1030.7 1024.9
16 14.09 ЮЗ 4 50 км 6/6 930 м
[]
+16.1 +9.0 63 +15 +16 1029.7 1023.9
17 14.09 З 3 55 км 3/0
[]
+14.3 +9.4 72 +13 +14 1029.3 1023.5
18 14.09 ЮЗ 3 50 км 9/0
[]
+13.3 +9.0 75 +12 +12 1028.9 1023.0 +8.1 +18.7
19 14.09 ЮЗ 3 45 км 9/0
[]
+12.5 +9.0 79 +11 +11 1028.2 1022.3
20 14.09 ЮЗ 4 30 км 10/0
[]
+12.2 +9.1 81 +10 +10 1027.3 1021.4
21 14.09 ЮЗ 4 40 км 10/0
[]
+12.2 +9.4 83 +10 +10 1026.2 1020.3
22 14.09 ЮЗ 4 40 км 10/0
[]
+12.3 +9.4 82 +10 +10 1025.5 1019.6
23 14.09 ЮЗ 4 35 км 10/0
[]
+12.0 +9.4 84 +10 +10 1024.2 1018.4
00 15.09 ЮЗ 5 40 км н/о +11.6 +8.9 83 +9 +9 1023.0 1017.1
01 15.09 ЮЗ 4-8
{9}
35 км н/о +11.7 +9.1 84 +10 +10 1021.7 1015.9
02 15.09 ЮЗ 5-9
{9}
45 км н/о +12.2 +9.4 83 +10 +10 1020.6 1014.8
03 15.09 ЮЗ 5 35 км н/о +11.6 +9.4 86 +9 +9 1019.5 1013.7
05 15.09 ЮЗ 4 30 км 9/0
[Cs]
+11.9 +9.5 85 +10 +10 1017.7 1011.9

 

Местоположение метеостанции Шлезвиг (Германия): широта 54.53 долгота 9.55 высота над уровнем моря 43 м.

В архиве по умолчанию представлена погода в Шлезвиге за последнюю неделю. Архивные данные за месяц целиком и за предыдущие месяцы, начиная с января 2011 года, Вы можете получить, выбрав интересующий диапазон дат из раскрывающегося списка и нажав кнопку "Ввод!".


*Определитесь, кто Вы:
робот инопланетянин человек

Внимание! Время в таблицах - всемирное. Для получения местного времени необходимо прибавить поправку, которая равна 1 ч.

Смотрите также архив погоды в соседних городах и на ближайших метеорологических станциях:

Погода в Шлезвиг аэропорту (Германия) (7 км)
Погода в Хоне (Германия) (23 км)
Погода в Глюксбурге (Германия) (34 км)
Погода в Ольпенице (Германия) (35 км)
Погода в Киле (Германия) (42 км)
Погода на Мысе Kegnaes (Дания) (45 км)
Погода в Киль маяке (Германия) (47 км)
Погода в Леке (Германия) (49 км)
Погода в Итцехоэ (Германия) (61 км)
Погода в Эльперсбюттеле (Германия) (62 км)

Пояснения к столбцам:

Ветер - указаны скорость ветра в м/с - средняя за 10 мин, порывы в срок и между сроками (в фигурных скобках) и направление, откуда дует ветер: С - северный, СВ - северо-восточный, В - восточный, ЮВ - юго-восточный, Ю - южный, ЮЗ - юго-западный, З - западный, СЗ - северо-западный.
Видимость - горизонтальная дальность видимости в метрах или километрах. При видимости от 1 до 10 км при отсутствии осадков обычно наблюдается дымка, при ухудшении видимости до 1 км и менее - туман. В сухую погоду видимость может ухудшаться дымом, пылью или мглою.
Явления - указаны атмосферные явления, наблюдавшиеся в срок или в последний час перед сроком; фигурными скобками обозначены явления, наблюдавшиеся между сроками (за 1-3 часа до срока); квадратными скобками обозначены град или гололедные отложения с указанием их диаметра в мм.
Облачность - указаны через наклонную черту общая и нижняя облачность в баллах и высота нижней границы облаков в метрах; квадратными скобками обозначены формы облаков: Ci - перистые, Cs - перисто-слоистые, Cc - перисто-кучевые, Ac - высококучевые, As - высокослоистые, Sc - слоисто-кучевые, Ns - слоисто-дождевые, Cu - кучевые, Cb - кучево-дождевые. Подробнее классификацию облаков см. в Атласе облаков (PDF).
T - Температура воздуха - температура, измеренная на высоте 2 м над землей.
Td - Температура точки росы - температура, при понижении до которой содержащийся в воздухе водяной пар достигнет насыщения.
f - Относительная влажность воздуха - влажноcть воздуха, измеренная на высоте 2 м над землей.
Te - Эффективная температура - температура, которую ощущает одетый по сезону человек в тени. Характеристика душности погоды. При расчете учитывается влияние влажности воздуха и скорости ветра на теплоощущения человека.
Tes - Эффективная температура на солнце - температура, которую ощущает человек, с поправкой на солнечный нагрев. Характеристика знойности погоды. Зависит от высоты солнца над горизонтом, облачности и скорости ветра. Ночью, в пасмурную погоду, а также при ветре 12 м/с и более поправка равна нулю.
P - Атмосферное давление - приведенное к уровню моря атмосферное давление.
Po - Атмосферное давление - измеренное на уровне метеостанции атмосферное давление.
Tmin - Минимальная температура - минимум температуры воздуха на высоте 2 м над землей.
Tmax - Максимальная температура - максимум температуры воздуха на высоте 2 м над землей.
R - Количество осадков - Количество выпавших осадков за период времени, мм. При наведении курсора мыши на число - период времени, за который выпало указанное количество осадков.
R24 - Количество осадков - Количество выпавших осадков за 24 часа, мм.
S - Снежный покров - Высота снежного покрова, см. При наведении курсора мыши на число - состояние снежного покрова и степень покрытия местности в баллах.